Zurück zum Katalog

COSMOS 2251 DEB

AktivLEO
NORAD 35026·DEBRIS·🇷🇺 Russia

Gestartet Jun 16, 1993 von Plesetsk Cosmodrome

Loading…

Nächste Überflüge (nächste 24 Stunden)

TLE

AktuellSource: Space-Track

Epoche: Sep 14, 2026, 10:09 UTC

1 35026U 93036AGP 26257.42316062  .00000113  00000-0  32725-4 0  9991
2 35026  74.0474 158.3070 0084014 202.7932 279.5045 14.53761226921494

Verfolge COSMOS 2251 DEB in Echtzeit mit AllMySat

Download on the App Store